Tracking 23752 objects as of 24-Oct-2021
HD Live streaming from Space Station
objects crossing your sky now

SL-14 DEB

Track SL-14 DEB now!
10-day predictions


NORAD ID: 45313
Int'l Code: 1991-056BB
Perigee: 1,040.6 km
Apogee: 1,198.8 km
Inclination: 82.6 °
Period: 107.5 minutes
Semi major axis: 7490 km
RCS: Unknown
Launch date: August 15, 1991
Source: Commonwealth of Independent States (former USSR) (CIS)
Launch site: PLESETSK MISSILE AND SPACE COMPLEX (PKMTR)

Note: This is SATELLITE DEBRIS
aabbcc
Your satellite tracking list
Your tracking list is empty




NASA's NSSDC Master Catalog

Two Line Element Set (TLE):
1 45313U 91056BB  21296.27170116  .00001078  00000-0  19244-2 0  9990
2 45313  82.5814 243.8188 0105595 289.1948  69.7783 13.39123698 80953
Source of the keplerian elements: AFSPC